[[{"header":{"parameterUnit":"m.s-1","parameterCategory":1,"la1":30.2991,"la2":30.254,"lo1":-89.0895,"lo2":-89.0444,"dy":0.0017,"dx":0.0017,"nx":28,"ny":28,"refTime":"2023-08-21T09:00:00:Z","depth":0,"parameterNumber":2,"parameterNumberName":"U-component_of_WINDS"},"data":[0,0,0,0,0,0,0,0,0,0,0,0,0,0,0,0,0,0,0,0,0,0,0,0,0,0,0,0,0,0,0,0,0,0,0,0,0,0,0,0,0,0,0,0,0,0,0,0,0,0,0,0,0,0,0,0,0,0,-2.4438,-2.4437,0,-2.4347,-2.4346,-2.4345,-2.4177,-2.4174,-2.4171,-2.4168,-2.4079,-2.408,-2.408,0,0,0,0,0,0,0,0,0,0,0,0,0,-2.447,-2.447,-2.4438,-2.4436,-2.4435,-2.4347,-2.4346,-2.4344,-2.4178,-2.4174,-2.417,-2.4166,-2.4079,-2.4079,-2.408,0,0,0,0,0,0,0,0,0,0,0,0,0,-2.4425,-2.447,-2.4438,-2.4341,-2.4332,-2.4347,-2.4346,-2.4344,-2.4179,-2.4174,-2.4169,-2.4164,-2.4078,-2.4079,-2.408,-2.4184,0,0,-2.4083,-2.4084,0,0,0,0,0,0,0,0,-2.4428,-2.4424,-2.4357,-2.4348,-2.4337,-2.4268,-2.4324,-2.429,-2.418,-2.4237,-2.4168,-2.4162,-2.4146,-2.4141,-2.4135,-2.4179,-2.4176,-2.4083,-2.4084,-2.4084,-2.4085,0,0,0,0,0,0,0,-2.4431,-2.4427,-2.4402,-2.4356,-2.4344,-2.4304,-2.4292,-2.4317,-2.422,-2.4232,-2.4219,-2.4211,-2.414,-2.4134,-2.4132,-2.4174,-2.4083,-2.4084,-2.4085,-2.4085,-2.4297,-2.4302,0,0,0,0,0,0,-2.4448,-2.4431,-2.4405,-2.4399,-2.4371,-2.4307,-2.4294,-2.4295,-2.4219,-2.4203,-2.4215,-2.4203,-2.4135,-2.4131,-2.4128,-2.4242,-2.4084,-2.4085,-2.4086,-2.4292,-2.4298,-2.4303,0,0,0,0,0,0,-2.4449,-2.4447,-2.4408,-2.4411,-2.4403,-2.4312,-2.4315,-2.4296,-2.429,-2.4206,-2.4189,-2.4227,-2.4131,-2.4127,-2.417,-2.4237,-2.4086,-2.4087,-2.4286,-2.4294,-2.4301,-2.4473,0,0,0,0,0,0,-2.4451,-2.4449,-2.4486,-2.4413,-2.4404,-2.4452,-2.4319,-2.4298,-2.4292,-2.4276,-2.4213,-2.4198,-2.4127,-2.417,-2.4171,-2.4235,-2.4087,-2.4279,-2.4289,-2.4298,-2.4461,-2.4485,-2.4506,0,0,0,0,0,-2.4453,-2.454,-2.4489,-2.4487,-2.4449,-2.4456,-2.445,-2.4366,-2.4298,-2.4335,-2.4281,-2.42,-2.4229,-2.4176,-2.4176,-2.4241,-2.4275,-2.4287,-2.4298,-2.4451,-2.448,-2.4506,0,0,0,0,0,0,-2.4625,-2.4528,-2.4471,-2.4537,-2.4506,-2.4428,-2.4472,-2.4401,-2.4389,-2.4374,-2.4271,-2.4258,-2.4316,-2.4283,-2.4224,-2.4336,-2.4239,-2.4251,-2.4356,-2.4383,-2.4406,-2.4412,-2.4088,0,0,0,0,0,-2.467,-2.4683,-2.4598,-2.4665,-2.4652,-2.4565,-2.4565,-2.4502,-2.4466,-2.4453,-2.4402,-2.4371,-2.4372,-2.4376,-2.4373,-2.4455,-2.4439,-2.45,-2.4523,-2.4542,-2.4554,-2.4593,-2.4619,-2.4341,-2.434,-2.434,0,0,-2.4764,-2.4713,-2.4728,-2.4698,-2.4666,-2.4682,-2.4555,-2.4578,-2.4589,-2.4456,-2.4493,-2.4456,-2.4414,-2.4477,-2.4502,-2.4451,-2.4627,-2.4557,-2.4573,-2.4573,-2.4608,-2.4634,-2.4658,-2.4348,-2.4347,-2.4346,0,0,-2.4944,-2.4907,-2.4957,-2.4928,-2.488,-2.4822,-2.4835,-2.4767,-2.4736,-2.4771,-2.4672,-2.4684,-2.469,-2.4663,-2.4651,-2.482,-2.4744,-2.4822,-2.4941,-2.4981,-2.5003,-2.5022,-2.5081,-2.5103,-2.4834,-2.4835,-2.4835,0,-2.5068,-2.5086,-2.4993,-2.5021,-2.5011,-2.489,-2.494,-2.4916,-2.4872,-2.4868,-2.4811,-2.4815,-2.4778,-2.4833,-2.4874,-2.4868,-2.4879,-2.4829,-2.5007,-2.5025,-2.5041,-2.5097,-2.5119,-2.4844,-2.4843,-2.4842,-2.4841,0,-2.524,-2.5255,-2.5301,-2.5259,-2.5254,-2.5294,-2.5207,-2.5213,-2.5151,-2.5099,-2.5136,-2.5088,-2.5073,-2.5081,-2.5022,-2.5127,-2.5096,-2.5026,-2.4926,-2.5079,-2.5129,-2.515,-2.4858,-2.4855,-2.4852,-2.4849,0,0,-2.5526,-2.543,-2.5449,-2.5427,-2.5366,-2.5376,-2.541,-2.5393,-2.54,-2.5374,-2.5399,-2.5407,-2.5339,-2.5326,-2.5262,-2.5297,-2.5432,-2.5221,-2.5218,-2.5261,-2.5544,-2.5598,-2.5624,-2.5382,-2.5385,-2.5388,-2.5547,0,-2.5691,-2.5742,-2.5659,-2.573,-2.5742,-2.5627,-2.5656,-2.5622,-2.5575,-2.5578,-2.5526,-2.5532,-2.5444,-2.5434,-2.5464,-2.541,-2.5488,-2.5397,-2.5405,-2.5406,-2.5418,-2.565,-2.5707,-2.5859,-2.5566,-2.557,-2.5572,0,-2.5892,-2.5872,-2.5944,-2.5877,-2.5879,-2.5907,-2.5884,-2.5889,-2.5848,-2.5811,-2.5795,-2.5719,-2.5748,-2.5652,-2.569,-2.5631,-2.5629,-2.5603,-2.5607,-2.5603,-2.5498,-2.5652,-2.5905,-2.5928,-2.5602,-2.56,-2.5598,0,-2.6091,-2.6084,-2.6125,-2.6111,-2.6034,-2.6056,-2.6025,-2.5979,-2.5974,-2.5955,-2.595,-2.5936,-2.5928,-2.5918,-2.584,-2.5778,-2.5888,-2.5786,-2.5857,-2.586,-2.5885,-2.5885,-2.6141,-2.5887,-2.5886,-2.5886,-2.5885,0,-2.6284,-2.6333,-2.6214,-2.6239,-2.629,-2.6193,-2.6246,-2.6204,-2.6164,-2.6179,-2.608,-2.6097,-2.5993,-2.5999,-2.5938,-2.5979,-2.5976,-2.5947,-2.593,-2.5955,-2.5959,-2.5952,-2.5939,-2.5892,-2.589,-2.5889,-2.5888,0,-2.6516,-2.6438,-2.6475,-2.6399,-2.6381,-2.6421,-2.6356,-2.6377,-2.6322,-2.6343,-2.6342,-2.6257,-2.6259,-2.618,-2.6166,-2.6125,-2.6191,-2.6156,-2.6205,-2.6193,-2.6269,-2.6263,-2.6529,-2.6559,-2.6287,-2.629,-2.6292,0,-2.6644,-2.6678,-2.6604,-2.6607,-2.658,-2.6586,-2.658,-2.6487,-2.6484,-2.6439,-2.6466,-2.6459,-2.6448,-2.6456,-2.6393,-2.6382,-2.6345,-2.6439,-2.6343,-2.6366,-2.6345,-2.6343,-2.6346,-2.6459,-2.6463,-2.6466,-2.6468,0,-2.6879,-2.6838,-2.6832,-2.6813,-2.6808,-2.6789,-2.6763,-2.6771,-2.6669,-2.6671,-2.6671,-2.6663,-2.6647,-2.6641,-2.6618,-2.6587,-2.6511,-2.6499,-2.6514,-2.654,-2.6567,-2.6552,-2.6259,-2.6493,-2.649,-2.6489,-2.6487,-2.6486,-2.7061,-2.7085,-2.7037,-2.7033,-2.7004,-2.6982,-2.6997,-2.6944,-2.6941,-2.692,-2.6866,-2.6874,-2.6831,-2.6792,-2.6767,-2.6773,-2.6726,-2.6749,-2.6755,-2.6762,-2.6775,-2.6567,-2.6768,-2.6767,-2.6767,-2.6766,-2.6765,0,-2.7289,-2.7252,-2.725,-2.7216,-2.7214,-2.7141,-2.7109,-2.7111,-2.7119,-2.7085,-2.7076,-2.7076,-2.7069,-2.7006,-2.6992,-2.7008,-2.6973,-2.7008,-2.7005,-2.6999,-2.6819,-2.6806,-2.7037,-2.7037,-2.7037,-2.7036,-2.7036,-2.7036,-2.7408,-2.7445,-2.7399,-2.742,-2.7382,-2.7388,-2.7376,-2.7355,-2.7327,-2.733,-2.7324,-2.7282,-2.7236,-2.7217,-2.7208,-2.719,-2.7189,-2.7236,-2.7206,-2.7038,-2.7012,-2.6987,-2.6974,-2.7237,-2.7237,-2.7385,-2.7386,-2.7387]},{"header":{"parameterUnit":"m.s-1","parameterCategory":1,"la1":30.2991,"la2":30.254,"lo1":-89.0895,"lo2":-89.0444,"dy":0.0017,"dx":0.0017,"nx":28,"ny":28,"refTime":"2023-08-21T09:00:00:Z","depth":0,"parameterNumber":3,"parameterNumberName":"V-component_of_WINDS"},"data":[0,0,0,0,0,0,0,0,0,0,0,0,0,0,0,0,0,0,0,0,0,0,0,0,0,0,0,0,0,0,0,0,0,0,0,0,0,0,0,0,0,0,0,0,0,0,0,0,0,0,0,0,0,0,0,0,0,0,-1.0721,-1.0722,0,-1.0814,-1.0815,-1.0816,-1.0897,-1.0898,-1.0898,-1.0899,-1.0991,-1.0992,-1.0994,0,0,0,0,0,0,0,0,0,0,0,0,0,-1.061,-1.0612,-1.0721,-1.0722,-1.0724,-1.0814,-1.0815,-1.0816,-1.0896,-1.0898,-1.0899,-1.09,-1.099,-1.0992,-1.0994,0,0,0,0,0,0,0,0,0,0,0,0,0,-1.0676,-1.0613,-1.0721,-1.0775,-1.078,-1.0814,-1.0815,-1.0817,-1.0896,-1.0898,-1.0899,-1.09,-1.099,-1.0992,-1.0994,-1.0981,0,0,-1.1002,-1.1003,0,0,0,0,0,0,0,0,-1.0672,-1.068,-1.0766,-1.0771,-1.0777,-1.0845,-1.081,-1.0872,-1.0896,-1.0852,-1.0899,-1.0901,-1.0941,-1.0948,-1.0962,-1.0986,-1.099,-1.1002,-1.1003,-1.1004,-1.1005,0,0,0,0,0,0,0,-1.0668,-1.0677,-1.0758,-1.0767,-1.0774,-1.0793,-1.0804,-1.0822,-1.0888,-1.0856,-1.0862,-1.0872,-1.0945,-1.0959,-1.0965,-1.0991,-1.1002,-1.1004,-1.1005,-1.1006,-1.1008,-1.1007,0,0,0,0,0,0,-1.0655,-1.0672,-1.0755,-1.0761,-1.0727,-1.0794,-1.0806,-1.0822,-1.0888,-1.0899,-1.0871,-1.0875,-1.0955,-1.0962,-1.0968,-1.0957,-1.1004,-1.1007,-1.1008,-1.101,-1.1008,-1.1007,0,0,0,0,0,0,-1.0653,-1.0662,-1.0751,-1.0718,-1.0731,-1.0794,-1.0812,-1.0823,-1.0838,-1.0899,-1.0911,-1.0874,-1.0956,-1.0965,-1.0978,-1.0961,-1.1008,-1.101,-1.1011,-1.1009,-1.1007,-1.0934,0,0,0,0,0,0,-1.0649,-1.0661,-1.0657,-1.0718,-1.0733,-1.076,-1.0811,-1.0824,-1.0842,-1.0849,-1.0905,-1.0916,-1.0958,-1.0974,-1.098,-1.0965,-1.1012,-1.1013,-1.101,-1.1008,-1.0938,-1.093,-1.0922,0,0,0,0,0,-1.0645,-1.0632,-1.0656,-1.0666,-1.073,-1.0759,-1.0767,-1.0817,-1.0841,-1.0837,-1.0876,-1.0914,-1.0962,-1.0974,-1.0982,-1.0968,-1.1014,-1.1011,-1.1008,-1.0942,-1.0931,-1.0922,0,0,0,0,0,0,-1.0567,-1.0641,-1.0669,-1.0675,-1.071,-1.0772,-1.0769,-1.0805,-1.0833,-1.0838,-1.0898,-1.0909,-1.0915,-1.0943,-1.0955,-1.0958,-1.0993,-1.0991,-1.094,-1.0931,-1.0923,-1.0915,-1.1014,0,0,0,0,0,-1.0551,-1.0569,-1.0633,-1.0632,-1.0648,-1.0706,-1.072,-1.0756,-1.0794,-1.0809,-1.0849,-1.0883,-1.0906,-1.092,-1.0945,-1.0943,-1.0955,-1.0937,-1.0929,-1.0922,-1.0919,-1.092,-1.0912,-1.0996,-1.0996,-1.0996,0,0,-1.0517,-1.056,-1.0567,-1.0618,-1.0649,-1.0666,-1.0718,-1.0733,-1.0746,-1.0811,-1.0825,-1.0856,-1.0899,-1.0904,-1.0908,-1.0927,-1.0899,-1.0918,-1.0912,-1.0914,-1.0916,-1.0908,-1.09,-1.0994,-1.0995,-1.0995,0,0,-1.0463,-1.0498,-1.0502,-1.0532,-1.0579,-1.0617,-1.0618,-1.0675,-1.0698,-1.0714,-1.0762,-1.0778,-1.0817,-1.0845,-1.0864,-1.0821,-1.0857,-1.0828,-1.0786,-1.0785,-1.0779,-1.0773,-1.0757,-1.0751,-1.0825,-1.0825,-1.0825,0,-1.0415,-1.0444,-1.0498,-1.0511,-1.0531,-1.0592,-1.0595,-1.0622,-1.0673,-1.0685,-1.0706,-1.0756,-1.0789,-1.0801,-1.0791,-1.0805,-1.0806,-1.0821,-1.0776,-1.077,-1.0766,-1.0751,-1.0745,-1.0821,-1.0821,-1.0822,-1.0822,0,-1.0381,-1.04,-1.0397,-1.0446,-1.0466,-1.0474,-1.0529,-1.0542,-1.0576,-1.0611,-1.0626,-1.0668,-1.0702,-1.0708,-1.074,-1.0724,-1.0735,-1.0765,-1.0801,-1.0753,-1.074,-1.0735,-1.0815,-1.0817,-1.0818,-1.0819,0,0,-1.0281,-1.0361,-1.0359,-1.0382,-1.0438,-1.0453,-1.0463,-1.0497,-1.0507,-1.0541,-1.055,-1.0581,-1.061,-1.0631,-1.0668,-1.0667,-1.063,-1.0698,-1.07,-1.0683,-1.0613,-1.059,-1.0582,-1.0654,-1.0653,-1.0653,-1.061,0,-1.0236,-1.0259,-1.0308,-1.0315,-1.0332,-1.039,-1.0399,-1.0433,-1.0467,-1.0486,-1.0523,-1.0544,-1.058,-1.0593,-1.0595,-1.0634,-1.0616,-1.0638,-1.0662,-1.0662,-1.0648,-1.0576,-1.0551,-1.0508,-1.0605,-1.0604,-1.0604,0,-1.0187,-1.0218,-1.0226,-1.0281,-1.029,-1.0297,-1.0332,-1.035,-1.039,-1.0415,-1.0439,-1.0479,-1.0492,-1.0526,-1.0543,-1.0557,-1.057,-1.059,-1.0589,-1.0593,-1.0629,-1.0576,-1.0496,-1.0489,-1.0596,-1.0597,-1.0597,0,-1.0111,-1.0155,-1.0166,-1.0184,-1.0248,-1.0252,-1.0279,-1.0321,-1.0338,-1.0368,-1.038,-1.041,-1.0427,-1.045,-1.0497,-1.0517,-1.0509,-1.0547,-1.0528,-1.0527,-1.0523,-1.0522,-1.0443,-1.0533,-1.0533,-1.0533,-1.0533,0,-1.0055,-1.0058,-1.0133,-1.0139,-1.0143,-1.02,-1.0202,-1.0235,-1.0271,-1.0284,-1.0336,-1.0347,-1.0409,-1.0427,-1.0464,-1.0472,-1.0479,-1.0498,-1.0508,-1.0493,-1.0491,-1.0502,-1.0505,-1.0531,-1.0532,-1.0532,-1.0532,0,-0.9972,-1.0022,-1.0037,-1.0097,-1.0113,-1.0113,-1.0164,-1.0172,-1.0209,-1.0224,-1.0231,-1.0288,-1.0312,-1.0361,-1.0398,-1.0423,-1.0422,-1.044,-1.0408,-1.0414,-1.0392,-1.0393,-1.0316,-1.0309,-1.0404,-1.0403,-1.0402,0,-0.9932,-0.9936,-0.9996,-1.0009,-1.0034,-1.0054,-1.0072,-1.0128,-1.0144,-1.019,-1.0192,-1.022,-1.0245,-1.0279,-1.0323,-1.0352,-1.037,-1.0341,-1.0374,-1.0359,-1.0368,-1.0367,-1.0367,-1.0333,-1.0332,-1.0331,-1.033,0,-0.9857,-0.9881,-0.9906,-0.9939,-0.9959,-0.9987,-1.0018,-1.0026,-1.0088,-1.0104,-1.0129,-1.0148,-1.0186,-1.0213,-1.0247,-1.0274,-1.0312,-1.0319,-1.0316,-1.0301,-1.0282,-1.0291,-1.0387,-1.0321,-1.0321,-1.0322,-1.0323,-1.0323,-0.9793,-0.9799,-0.9842,-0.9868,-0.9897,-0.9925,-0.9935,-0.9973,-0.9996,-1.0031,-1.0063,-1.0084,-1.0124,-1.0175,-1.0199,-1.0216,-1.0235,-1.0231,-1.023,-1.0228,-1.0221,-1.028,-1.0223,-1.0223,-1.0224,-1.0224,-1.0224,0,-0.972,-0.9751,-0.9773,-0.9816,-0.9835,-0.987,-0.9906,-0.992,-0.9939,-0.9973,-0.9997,-1.0025,-1.0051,-1.0098,-1.0127,-1.0132,-1.015,-1.0138,-1.0137,-1.0143,-1.0203,-1.0202,-1.0123,-1.0123,-1.0123,-1.0123,-1.0123,-1.0123,-0.9684,-0.9695,-0.9724,-0.975,-0.9781,-0.9803,-0.9821,-0.9846,-0.9874,-0.9904,-0.9926,-0.9956,-0.9995,-1.0028,-1.0053,-1.0066,-1.0074,-1.0056,-1.0074,-1.0129,-1.0138,-1.0148,-1.0147,-1.0057,-1.0057,-1.0012,-1.0012,-1.0011]}]]